Regional Weather Roundup
Issued by NWS Upton, NY

Home | Current Version | Previous Version | Text Only | Print | Product List | Glossary On
Versions: 1 2 3 4 5 6 7 8 9 10 11 12 13 14 15 16 17 18 19 20 21 22 23 24 25 26 27 28 29 30 31 32 33 34 35 36 37 38 39 40 41 42 43 44 45 46 47
000
ASUS41 KOKX 221905
RWROKX

REGIONAL WEATHER ROUNDUP
NATIONAL WEATHER SERVICE NEW YORK NY
200 PM EST MON DEC 22 2014

NOTE: "FAIR" INDICATES FEW OR NO CLOUDS BELOW 12,000 FEET WITH NO
SIGNIFICANT WEATHER AND/OR OBSTRUCTIONS TO VISIBILITY.

NYZ071-072-176-178-NJZ106-104-222000-
NEW YORK CITY METRO AREA


CITY           SKY/WX    TMP DP  RH WIND       PRES   REMARKS
CENTRAL PARK   CLOUDY    41  36  82 VRB6      30.25F
LAGUARDIA APRT CLOUDY    41  37  86 NE15      30.23F
KENNEDY INTL   CLOUDY    47  38  71 NE6       30.23F
NEWARK/LIBERTY CLOUDY    42  36  79 N10       30.22F
BRNX BOT. GARD   N/A     41  36  81 E1        30.24R
TETERBORO      CLOUDY    42  36  79 NE5       30.22F
$$

NYZ177-179-078>081-222000-
LONG ISLAND NEW YORK

CITY           SKY/WX    TMP DP  RH WIND       PRES   REMARKS
FARMINGDALE    CLOUDY    45  39  79 E10       30.22F
ISLIP          CLOUDY    45  38  76 E9        30.22F
SHIRLEY        CLOUDY    45  39  79 VRB3      30.25F
WESTHAMPTON    CLOUDY    45  39  79 E10       30.26F
MONTAUK POINT    N/A     46  41  82 NE9       30.28S
$$

NYZ052-065-067-222000-
HUDSON VALLEY

CITY           SKY/WX    TMP DP  RH WIND       PRES   REMARKS
WHITE PLAINS   PTSUNNY   42  35  76 E8        30.22F
NEWBURGH       CLOUDY    36  34  93 VRB5      30.25F FOG     WCI  32
MONTGOMERY     CLOUDY    37  31  78 N3        30.23F
POUGHKEEPSIE   CLOUDY    39  32  76 N3        30.25F
ALBANY         FLURRIES  34  26  72 CALM      30.28F
$$

NJZ001-105-106-008-010-013-015-019>022-104-222000-
NEW JERSEY

CITY           SKY/WX    TMP DP  RH WIND       PRES   REMARKS
NEWARK/LIBERTY CLOUDY    42  36  79 N10       30.22F
TETERBORO      CLOUDY    42  36  79 NE5       30.22F
CALDWELL       CLOUDY    40  31  70 NE7       30.22F
MORRISTOWN     CLOUDY    39  34  81 NE7       30.23F WCI  34
SOMERVILLE     CLOUDY    40  34  79 NE3       30.22F HAZE
SUSSEX         CLOUDY    35  31  85 NE7       30.22F WCI  29
ANDOVER          N/A     33  32  96 NE5       30.23F WCI  29
TRENTON        CLOUDY    40  34  79 CALM      30.23S HAZE
MILLVILLE      LGT RAIN  43  36  76 NE5       30.21S
ATLANTIC CITY  CLOUDY    44  39  82 E12       30.20F
WRIGHTSTOWN    NOT AVBL
TOMS RIVER     CLOUDY    43  37  81 NE5       30.22S
BELMAR         CLOUDY    43  34  70 CALM      30.22S
$$

PAZ047>061-062-071-222000-
EASTERN PENNSYLVANIA

CITY           SKY/WX    TMP DP  RH WIND       PRES   REMARKS
PHILADELPHIA   CLOUDY    44  33  65 N3        30.22F
ALLENTOWN      CLOUDY    41  31  67 VRB3      30.22F
SCRANTON       MOSUNNY   40  28  62 S9        30.17F WCI  34
$$

CTZ002-004>006-009-010-012-RIZ004-006-007-MAZ004-011-015-222000-
SOUTHERN NEW ENGLAND
 IN CT

CITY           SKY/WX    TMP DP  RH WIND       PRES   REMARKS
BRADLEY INTL   PTSUNNY   41  33  73 N6        30.27F
HARTFORD       CLOUDY    41  33  73 NW8       30.28F
DANBURY        CLOUDY    42  34  73 E7        30.25F
WTRBRY/OXFORD  CLOUDY    39  30  70 E6        30.25F WCI  35
BRIDGEPORT     CLOUDY    43  37  79 E10       30.26F
MERIDEN        CLOUDY    41  34  76 NE8       30.27F
NEW HAVEN      CLOUDY    46  36  68 N7        30.26F
CHESTER        CLOUDY    45  36  70 E9        30.25F
GROTON         CLOUDY    46  37  71 E10       30.26F
WILLIMANTIC    MOSUNNY   45  34  65 E8        30.28F

 IN RI

CITY           SKY/WX    TMP DP  RH WIND       PRES   REMARKS
PROVIDENCE     PTSUNNY   43  37  79 NE7       30.30F
BLOCK ISLAND   CLOUDY    45  37  76 E9        30.27S
WESTERLY       CLOUDY    45  37  73 NE8       30.28F

 IN MA

CITY           SKY/WX    TMP DP  RH WIND       PRES   REMARKS
BOSTON         PTSUNNY   43  37  79 NE9       30.33F
WORCESTER      CLOUDY    36  31  82 NE6       30.28F WCI  31
WESTFIELD      CLOUDY    39  33  79 N8        30.28F WCI  33
PROVINCETOWN   PTSUNNY   45  39  81 E10       30.33F
NANTUCKET      PTSUNNY   48  38  68 E15       30.30F
$$

ANZ330-335-338-340-345-350-353-355-222000-
COASTAL MARINE OBSERVATIONS


STATION/POSITION TIME  SKY/WX   TEMP    WIND        PRES    VSBY  WAVE
                                AIR SEA DIR/SP/G                  HT/PER
                 (UTC)          (F)     (DEG/KT/KT) (MB)    (MI)  (FT/S)
NY HARB ENTRANCE 1900            45 46   60/ 12/ 14 1023.5          3/ 5
4S FIRE IS       1900               47                N/A           4/ 5
20S FIRE ISLAND  1800            47 50              1024.5          3/ 5
23SW MTP         1900                                 N/A           4/ 5
HUDSON CANYON    1900            50 55  100/  8/ 10 1022.4          3/ 8
EXECUTION ROCKS  1900            41 41   70/ 14/ 19   N/A
WESTERN LI SOUND 1900            41      60/ 14/ 16   N/A           2/ 4
CENTRAL LI SOUND 1800            43 44   90/ 16/ 19   N/A           2/ 4
EASTERN LI SOUND NOT AVBL
ROBBINS REEF     1900            41                 1021.9
$$


>>>>>>>>>>>>>>>>>>>>>>>>>>>> KEY <<<<<<<<<<<<<<<<<<<<<<<<<<<
>                                                          <
>     SKY/WX - SKY CONDITION/PRESENT WEATHER               <
>     TMP    - TEMPERATURE IN FAHRENHEIT                   <
>     DP     - DEWPOINT IN FAHRENHEIT                      <
>     RH     - RELATIVE HUMIDITY IN PERCENT                <
>     WIND   - DIRECTION AND SPEED IN MPH                  <
>     PRES   - MEAN SEA LEVEL PRESSURE IN INCHES OF HG     <
>     WCI    - WIND CHILL INDEX                            <
>     VSB    - VISIBILITY IN MILES                         <
>     HX     - HEAT INDEX                                  <
>     TC     - TEMPERATURE IN CELSIUS                      <
>     VRB    - VARIABLE WIND DIRECTION                     <
>                                                          <
>>>>>>>>>>>>>>>>>>>>>>>>>>>> KEY <<<<<<<<<<<<<<<<<<<<<<<<<<<




USA.gov is the U.S. government's official web portal to all federal, state and local government web resources and services.